Dewpoint
29 29 29 29 30 31 31 31 33 35 36 38 40 42 42 42 41 42 42 43 43 42 42 41 40 39 38 37 35 33 32 31 29 29 30 31 33 33 35 38 41 41 42
30 29 29 29 30 30 30 30 32 32 34 36 41 41 42 42 42 42 41 42 42 42 42 41 40 39 38 37 36 33 32 32 32 29 31 32 32 34 34 35 37 37 39
30 29 29 30 30 29 29 29 31 31 31 36 38 39 41 42 42 42 42 42 42 42 42 42 41 41 41 38 37 35 34 32 32 32 31 33 34 35 36 37 37 37 37
30 30 30 30 30 28 29 30 31 31 32 35 35 38 40 42 42 42 42 42 42 42 43 43 43 41 42 41 36 36 34 34 33 33 32 33 34 36 37 36 36 37 37
31 32 33 32 30 30 30 31 31 32 33 34 35 39 42 42 42 41 42 42 42 43 44 44 43 45 47 43 39 36 34 33 33 33 33 34 35 35 35 36 36 37 37
30 30 31 33 32 30 30 31 32 32 33 35 41 40 39 41 43 42 40 38 41 43 43 44 45 47 47 50 49 45 38 33 32 33 34 33 34 35 36 36 36 36 35
27 27 28 29 31 31 31 30 31 33 34 37 38 38 38 40 43 42 41 38 39 39 41 42 44 44 47 46 49 48 44 43 39 33 33 33 34 36 37 36 36 36 37
27 27 26 27 28 30 30 30 32 34 35 36 36 37 38 39 42 40 41 40 39 41 42 42 43 44 42 45 45 42 40 40 39 36 34 35 36 38 38 37 38 38 39
28 29 29 28 28 28 29 32 32 33 34 35 36 37 38 37 40 40 40 40 41 42 43 42 44 44 44 47 44 41 40 40 44 44 41 43 44 43 41 40 40 39 38
31 32 33 33 32 30 30 31 34 33 33 35 36 37 37 33 37 40 41 41 41 42 42 42 46 44 46 48 44 40 39 37 39 39 40 42 42 41 43 41 39 38 37
36 38 37 38 36 35 33 31 32 35 32 33 32 32 33 35 37 42 43 41 42 42 42 43 43 46 48 48 46 39 38 37 39 36 38 38 37 37 37 36 37 38 38
38 38 37 38 37 35 34 31 30 31 30 31 31 32 35 37 41 42 43 45 45 44 43 43 44 48 48 47 43 43 43 41 39 38 36 35 35 34 34 36 38 41 42
39 38 36 36 37 34 34 31 30 30 31 31 32 34 35 38 39 42 46 46 46 45 43 43 45 46 47 45 43 44 44 38 36 34 34 33 33 34 35 38 41 44 46
38 36 34 33 34 33 31 31 30 31 30 31 34 34 37 39 39 42 43 45 47 44 44 44 45 45 43 44 44 41 37 36 35 33 32 33 35 37 38 42 44 45 47
37 37 36 32 33 34 35 33 30 29 32 33 35 36 39 39 40 43 44 43 43 43 45 45 43 41 40 38 36 37 37 35 33 33 34 35 36 38 41 44 45 46 47
36 36 36 36 34 36 33 33 36 37 38 39 41 40 39 42 44 46 46 44 46 46 42 40 39 39 37 35 35 35 34 35 34 35 36 36 37 40 41 43 45 48 46
36 37 37 38 37 36 35 35 35 35 38 40 39 42 44 46 45 46 46 47 45 43 40 39 37 36 35 35 34 33 33 35 36 36 35 36 39 40 42 42 45 47 46
37 39 37 37 38 38 37 36 36 36 36 37 40 45 45 46 46 46 46 44 40 39 38 36 36 35 35 34 34 35 36 37 36 35 35 38 39 40 41 42 44 47 47
37 37 39 40 40 39 38 38 38 38 37 38 43 45 46 47 46 44 41 37 37 37 36 36 36 35 34 35 37 37 37 36 35 35 37 38 39 40 40 42 44 47 47
37 40 40 38 39 39 39 38 37 37 38 41 42 44 42 40 38 37 37 38 37 37 37 36 35 35 36 37 37 37 36 35 34 35 36 37 39 40 41 42 44 46 47
37 37 40 37 38 40 41 40 40 40 40 41 42 41 41 38 37 37 37 38 38 38 36 36 36 36 37 37 37 36 35 34 34 34 36 37 38 39 41 42 43 46 47
36 36 37 37 38 39 39 39 39 39 39 39 40 39 40 37 37 37 37 36 37 37 36 35 36 36 37 38 37 36 35 34 34 34 35 36 38 40 41 41 42 43 45
36 35 35 36 37 38 37 38 38 38 38 38 37 37 37 37 38 37 36 37 36 36 36 36 36 37 38 38 38 37 36 35 34 34 34 35 38 40 40 41 41 41 43
36 35 35 35 36 37 37 37 38 38 37 36 35 36 36 37 37 35 36 36 35 36 37 38 38 38 38 38 38 38 37 36 36 35 34 35 38 39 40 40 40 40 42
36 35 35 35 35 35 36 36 37 37 37 36 36 36 37 37 37 36 35 35 36 37 37 38 38 39 39 39 39 38 38 38 37 37 36 37 38 39 39 39 39 39 41
35 35 34 35 35 35 35 35 35 36 37 37 37 37 37 37 37 36 35 35 36 37 38 38 38 39 39 38 37 37 37 38 38 38 37 37 37 38 38 38 38 38 39
Lifted_Index
11 11 10 10 9 9 8 8 8 8 8 8 7 7 7 7 6 7 8 9 9 9 8 7 6 6 5 6 6 7 7 7 7 8 11 13 14 15 17 18 18 17 17
10 10 10 9 8 8 8 7 8 7 7 7 7 7 6 6 5 5 6 7 8 9 8 8 7 6 6 5 6 6 7 7 7 8 10 12 14 15 17 17 17 17 16
9 9 8 8 7 7 7 6 7 7 6 6 6 5 5 3 2 2 3 4 6 7 8 8 8 7 6 6 6 6 7 7 7 8 10 12 14 15 16 17 17 17 16
8 8 7 6 6 6 6 6 6 6 6 6 5 4 2 1 1 1 1 2 3 4 5 6 7 7 7 6 6 6 7 7 7 8 9 11 13 14 16 16 16 16 16
8 7 6 5 5 5 5 5 5 6 5 5 4 3 2 1 1 1 1 1 2 2 3 3 5 6 7 6 5 6 7 7 8 8 9 10 12 14 15 16 16 16 16
8 7 6 5 5 4 5 5 5 5 5 4 4 3 2 2 1 1 1 1 1 1 1 1 2 3 5 5 5 6 7 8 8 8 8 9 11 14 15 16 16 16 15
9 8 7 6 5 5 4 4 5 5 4 3 3 3 3 2 2 2 2 2 2 1 1 1 1 2 3 4 4 5 7 8 8 8 9 10 12 14 15 16 16 16 15
9 9 8 7 6 6 5 5 5 4 4 3 3 3 3 3 3 2 2 2 2 2 2 2 2 2 3 4 4 5 7 8 9 9 10 12 13 14 15 15 16 15 15
9 9 8 8 7 7 6 5 5 5 4 4 3 3 3 4 3 3 3 2 2 2 2 2 2 2 3 4 4 5 6 8 9 10 12 13 13 14 14 15 15 15 15
9 9 8 8 8 7 7 6 5 5 5 4 4 4 4 4 4 4 3 3 3 3 3 3 3 3 4 4 5 5 6 8 10 11 12 13 13 14 14 15 15 15 15
8 8 8 8 7 7 7 7 6 6 5 5 5 5 5 5 4 4 3 3 3 3 3 3 3 4 4 5 6 6 7 9 11 12 13 13 14 15 15 15 15 14 13
8 8 8 8 7 7 7 7 7 6 6 6 5 5 5 5 4 4 4 4 4 4 4 4 4 4 5 6 7 8 10 11 13 13 14 14 15 15 14 13 12 11 11
7 7 8 8 7 7 7 7 7 7 6 6 5 5 5 5 5 5 5 5 5 5 5 5 5 5 6 7 8 10 11 13 14 14 14 14 14 14 12 10 10 10 10
7 7 7 7 7 7 7 7 7 7 6 6 6 5 5 6 6 6 6 5 5 6 6 6 6 6 7 8 10 11 12 13 14 14 14 14 13 11 10 9 9 9 9
6 7 7 7 7 6 7 7 7 7 7 7 7 6 6 6 6 6 6 6 6 6 6 6 7 8 9 10 11 12 13 14 14 14 14 13 11 9 8 8 8 8 8
6 6 6 6 6 6 6 7 7 7 7 7 7 7 7 7 6 6 6 6 6 7 7 7 8 9 10 11 12 13 14 14 15 14 13 11 9 8 7 8 8 7 7
6 6 6 6 6 6 7 7 7 7 7 7 7 7 6 6 6 6 6 6 7 8 8 9 10 11 12 13 13 14 14 15 15 14 12 10 8 7 7 7 7 6 5
6 6 6 6 6 7 7 8 8 7 7 6 6 6 5 5 6 6 7 7 8 9 10 11 12 12 13 14 14 15 15 15 14 13 11 9 8 7 7 7 7 6 5
7 7 7 7 7 7 7 8 8 7 6 6 5 5 5 6 7 8 9 9 10 11 11 12 13 14 14 14 15 16 16 15 14 12 11 9 8 7 6 6 7 7 6
8 8 8 7 7 6 7 7 7 7 6 6 6 6 6 7 8 9 10 10 11 12 13 14 14 14 15 15 16 17 17 16 14 12 11 10 8 6 6 6 7 8 8
9 9 8 8 7 7 7 7 7 7 6 6 6 7 8 9 10 10 11 11 12 12 13 14 14 15 15 16 16 17 18 17 16 14 12 10 8 6 6 6 7 8 9
9 9 9 8 8 8 7 7 7 6 6 7 7 8 9 10 11 11 12 13 13 13 14 14 15 15 16 16 17 18 18 19 18 16 14 11 9 7 6 6 6 7 7
10 9 9 9 9 8 8 7 7 7 7 8 8 9 10 11 12 13 13 13 14 14 14 15 15 16 16 16 17 18 19 19 19 18 17 14 10 8 6 5 5 5 5
10 10 10 9 9 9 8 8 8 8 9 9 10 11 11 12 13 14 14 14 14 15 15 16 16 16 17 17 18 18 19 20 20 20 19 16 13 9 7 6 5 5 5
11 11 11 10 10 10 10 10 10 10 11 11 12 12 13 13 13 14 14 14 15 15 16 16 17 17 17 18 18 19 19 20 20 20 19 18 16 12 9 7 6 5 5
12 12 11 11 11 11 11 11 12 12 12 12 13 13 13 13 14 14 15 15 15 16 16 17 17 17 18 18 18 19 20 20 20 20 19 19 17 14 11 8 7 6 5